Volver al catálogo

STARLINK-37055

ActivoComunicacionesSSO
NORAD 68147·PAYLOAD·🇺🇸 United States

Lanzado Mar 13, 2026 desde Vandenberg Space Force Base

Loading…

Próximos Pases (próximas 24 horas)

TLE

ActualizadoSource: CelesTrak SupGP

Época: Sep 15, 2026, 04:07 UTC

1 68147C 26049F   26258.17201389 -.00055588  00000+0 -17256-2 0  2584
2 68147  97.2835 278.1867 0001525  90.2007 256.8464 15.33466698    19

Sigue STARLINK-37055 en tiempo real con AllMySat

Download on the App Store